{"data":{"norad_id":55670,"epoch":"2026-09-20T21:05:42.485280Z","epoch_age_seconds":70334,"freshness":"FRESH","line1":"1 55670U 23021AU  26263.87896395  .00000482  00000+0  48172-4 0  9994","line2":"2 55670  70.0007  32.2487 0003148 269.5530  90.5268 14.98322186198520","mean_motion":14.98322186,"eccentricity":0.0003148,"inclination_deg":70.0007,"raan_deg":32.2487,"arg_perigee_deg":269.553,"mean_anomaly_deg":90.5268,"bstar":4.8172e-5,"rev_number":19852,"period_min":96.107500339717,"perigee_km":569.89212687088,"apogee_km":574.26798352883,"semimajor_km":6950.2170551999,"source":"CELESTRAK","updated_at":"2026-09-21T09:00:33.309697Z"}}